Hourly Data Report for October 06, 2014

All times are specified in Local Standard Time (LST). Add 1 hour to adjust for Daylight Saving Time where and when it is observed.

ST LEONARD CS
NEW BRUNSWICK

47°09'28.050" N
67°49'55.014" W
245.00 m
810I001
71019
WIY

Download Data

Hourly Data (October 2014)
Hourly Data Report for October 6, 2014
Temp Definition
°C
Dew Point Temp Definition
°C
Rel Hum Definition
%
Wind Dir Definition
10's deg

Wind Spd Definition
km/h
Visibility Definition
km
Stn Press Definition
kPa
Hmdx Definition


Wind Chill Definition


Weather Definition


TIME
00:00 4.1 2.9 92   0   98.09     LegendNANA
01:00 3.8 2.8 93 24 3   98.20     LegendNANA
02:00 2.7 1.6 93   0   98.26     LegendNANA
03:00 1.5 0.8 96   0   98.30     LegendNANA
04:00 1.8 1.3 97 0 1   98.37     LegendNANA
05:00 1.1 0.7 97   0   98.41     LegendNANA
06:00 0.5 0.2 98 15 1   98.49     LegendNANA
07:00 1.3 1.1 99 15 4   98.60     LegendNANA
08:00 3.8 2.4 91 15 2   98.66     LegendNANA
09:00 7.3 3.9 80 5 LegendMM   98.73     LegendNANA
10:00 9.1 5.1 76 15 1   98.79     LegendNANA
11:00 11.5 6.1 69 24 3   98.82     LegendNANA
12:00 12.8 5.6 62 24 5   98.82     LegendNANA
13:00 14.2 5.4 55 22 5   98.80     LegendNANA
14:00 14.0 4.7 53 20 5   98.81     LegendNANA
15:00 14.5 4.4 51 20 3   98.81     LegendNANA
16:00 14.0 4.2 52 18 5   98.82     LegendNANA
17:00 14.3 4.4 51 19 3   98.87     LegendNANA
18:00 12.1 4.4 59 17 1   98.93     LegendNANA
19:00 9.6 4.6 71 15 3   98.99     LegendNANA
20:00 9.4 4.7 72 15 2   99.02     LegendNANA
21:00 8.9 4.8 76 15 2   99.09     LegendNANA
22:00 8.6 5.2 79 15 2   99.16     LegendNANA
23:00 8.1 5.8 86 14 5   99.19     LegendNANA

Notes on Data Quality.

Legend

  • E = Estimated
  • M = Missing
  • NA = Not Available
  • ‡ = Partner data that is not subject to review by the National Climate Archives
Date modified: